Погода в Новоключах

Россия / Новосибирская область     54°14′39″N   78°00′19″E
темп.,
°C
ветер,
м/с
пор.,
м/с
влажн.,
%
обл.,
%
осадки,
мм/ч
давл.,
гПа
погр.,
м
24 июля, сб
сб2401:00+20св337096 0.0 100632
04:00+20в1166100 0.0 100611
07:00+20ссв2271100 0.0 100724
10:00+24ссв2361100 0.0 1006358
13:00+27ссз225091 0.0 10071291
16:00+29с324449 0.0 10061692
19:00+28ссв434788 0.0 1006904
22:00+22ссв226296 0.0 100717
25 июля, вс
вс2501:00+20в126726 0.0 100711
04:00+19ю11790 0.0 100611
07:00+20ю11790 0.0 100611
10:00+25юв226010 0.0 1006439
13:00+28юв224398 0.0 10051595
16:00+30ююв2236100 0.0 10041913
19:00+30ююв23395 0.0 10021608
22:00+24вюв345199 0.0 100136
26 июля, пн
пн2601:00+22юв485388 0.0 1000122
04:00+20з510800 0.0 999287
07:00+18з81381100 0.0 1001784
10:00+19з81182100 0.1 1002938
13:00+18зсз91273100 0.1 10041037
16:00+19зсз71164100 0.0 10051396
19:00+17сз9116835 0.1 10071046
22:00+13сз61273100 0.0 1009591
27 июля, вт
вт2701:00+13з38639 0.0 1009368
04:00+12з4116867 0.0 1009396
07:00+11зсз3873100 0.0 1010206
10:00+14з4766100 0.0 1011382
13:00+16зсз4654100 0.0 1012896
16:00+18зсз564462 0.0 10111854
19:00+18зсз354891 0.0 1011658
22:00+15з3454100 0.0 101280
28 июля, ср
ср2801:00+13зюз346323 0.0 101251
04:00+11зюз34725 0.0 101246
07:00+12юз347344 0.0 101277
10:00+14юз3566100 0.0 1013181
13:00+18юз465394 0.0 1012582
16:00+22ююз354062 0.0 10111898
19:00+18ююв115637 0.0 1012111
22:00+15ю22625 0.0 101212